McNary Field
KSLE : now visible

Airfield :











YOU CAN JOIN US ON...

 
LOGIN :

Register | Disclaimer

   EN    FR    IT 

 









Legend :    VFR   Marginal VFR   IFR   Intensive IFR   Very Intensive IFR
Visi :
Ceiling :
>= 8 km
>= 3000ft
5 to 8 km
1000 to 3000 ft
1500m to 5 km
500 to 1000 ft
800 to 1500m
200 to 500 ft
< 800m
< 200 ft
Symbols :   Thunderstorms  Fog  Heavy snow  Heavy precipitations  Wind > 20 kt






- Airport Elevation : 214 ft


KSLE - McNary Field

CURRENT METAR :
  • 250356Z 27006KT 10SM CLR 27/13 A2996 RMK AO2 SLP142 T02720133

EXPIRED METARs :
  • 250256Z 28008KT 10SM CLR 29/13 A2995 RMK AO2 SLP139 T02890133 55005
  • 250156Z 33011G17KT 290V350 10SM CLR 32/14 A2994 RMK AO2 SLP138 T03170144

TAF KSLE
Valid from the 25 at 00:00 until the 26 at 00:00 UTC


242348Z 2500/2524 01005KT P6SM SKC
KZSE FIR / North America



MET'MAP, your aeronautical weather chart ! - Copyright ORBIFLY December 2007 - Disclaimer

ORBIFLY MET'MAP TEAM :

Programming & Development : Alexandra Zaïnal
Concept & original design : Baudouin d'Aumeries
Assistance for programming : Marc-Olivier Méhu
Technical & hardware support : Manuel Goepfert

Contact : metmap@orbifly.com




SOURCES & CREDITS :

   NOAA       Earth
Advisory